Location: Del Agnello
(44.6667°N, 6.9833°E)
Time: 19:33:28
(UTC+00:00)

Daily predictions for brighter satellites

Satellite Brightness Start Highest point End
(mag) Time Altitude Azimuth Time Altitude Azimuth Time Altitude Azimuth
Cosmos 2360 Rocket 2.3 19:46:52 10° NNW 19:52:34 78° ENE 19:58:13 10° SSE
SJ 16-02 1.7 19:51:20 10° S 19:55:25 44° ESE 19:59:33 10° NNE
Meteor 2-10 Rocket 3.6 19:51:36 10° N 19:57:03 70° ENE 20:02:14 10° SSE
Cosmos 2266 Rocket 4.1 19:51:09 10° S 19:57:31 82° E 20:03:58 10° N
Cosmos 1953 4.2 19:55:38 10° NE 19:57:48 14° ENE 19:59:58 10° ESE
S3M 4.1 19:52:16 10° N 19:58:38 84° E 20:04:53 10° S
Cosmos 1455 4.2 19:59:13 10° NE 20:00:53 13° ENE 20:02:31 10° E
Okean O Rocket 2.5 19:58:23 10° S 20:02:37 48° W 20:06:52 10° NNW
SL-08 ROCKET BODY 4.4 19:57:14 10° S 20:03:19 83° E 20:09:21 10° N
Cosmos 2228 Rocket 3.2 20:02:03 10° S 20:06:34 64° E 20:11:06 10° NNE
SL-27 R/B 3.0 20:04:02 10° SW 20:06:42 47° WNW 20:09:26 10° N
BREEZE-M DEB (TANK) 3.3 20:03:43 10° WSW 20:07:01 86° NNW 20:17:54 10° ENE
Cosmos 1862 Rocket 3.9 20:03:17 10° SSE 20:07:30 47° E 20:11:47 10° NNE
Okean 1-7 4.2 20:06:44 10° SE 20:10:16 25° E 20:13:47 10° NNE
GENESIS II 4.0 20:06:58 10° SSW 20:10:32 60° ESE 20:14:07 10° NE
SL-16 R/B 3.5 20:07:34 10° NW 20:12:43 36° WSW 20:17:50 10° S
Cosmos 1315 Rocket 3.9 20:09:33 10° SSE 20:12:58 28° E 20:16:23 10° NNE
COSMOS 2455 3.9 20:09:24 10° SSE 20:14:04 24° ESE 20:18:46 10° NE
Cosmos 1242 Rocket 4.1 20:13:41 10° ESE 20:14:39 11° E 20:15:36 10° ENE
Meteor 1-21 4.3 20:10:13 10° S 20:15:56 66° E 20:21:43 10° NNE
Cosmos 1346 Rocket 2.7 20:12:34 10° N 20:16:26 81° E 20:20:15 10° SSE
SeaSat 1 3.5 20:13:25 10° ESE 20:17:50 34° NE 20:22:15 10° NNW
DNEPR-1 R/B 4.3 20:12:47 10° NW 20:19:24 84° NE 20:24:22 12° SE
Ariane Rocket 3.5 20:20:29 11° SE 20:25:09 47° ENE 20:30:02 10° N
IRS-1C Rocket 4.1 20:20:34 10° SSE 20:25:49 86° ENE 20:31:07 10° NNW
Cosmos 1707 Rocket 3.6 20:22:27 10° S 20:26:54 88° WNW 20:31:20 10° N
Okean 3 3.5 20:23:15 10° S 20:27:20 62° E 20:31:29 10° NNE
Cosmos 839 Rocket 4.1 20:20:47 10° NNW 20:27:37 82° NE 20:33:11 13° SE
SL-14 R/B 3.7 20:25:00 10° SSW 20:28:44 61° W 20:32:31 10° N
IRS-1A Rocket 4.3 20:23:15 10° SSE 20:28:44 88° ENE 20:34:19 10° NNW
Cosmos 2333 Rocket 2.7 20:24:34 10° NNW 20:30:14 59° WSW 20:35:53 10° S
SL-4 R/B 2.5 20:28:03 10° NW 20:31:49 53° NNE 20:35:48 10° ESE
Cosmos 2237 Rocket 4.0 20:28:38 10° N 20:32:48 20° NE 20:36:56 10° E
OPS 8737 4.4 20:30:08 10° NW 20:33:02 60° SW 20:35:32 16° SSE
Cosmos 1655 Rocket 4.2 20:27:21 10° S 20:33:45 79° W 20:40:11 10° N
BlueWalker 3 2.6 20:31:42 10° WSW 20:35:24 58° NNW 20:39:07 10° NE
Cosmos 968 Rocket 4.2 20:30:38 10° SW 20:35:42 58° WNW 20:40:52 10° NNE
CZ-4C R/B 4.0 20:31:56 10° N 20:36:01 60° WNW 20:39:59 10° SSW
Okean 2 3.7 20:34:09 12° SSE 20:37:38 45° E 20:41:29 10° NNE
Cosmos 1733 Rocket 3.5 20:39:00 10° NNW 20:43:23 62° W 20:47:45 10° S
Resurs 01 Rocket 4.3 20:42:49 10° WSW 20:45:09 14° W 20:47:29 10° WNW
Cosmos 2322 3.9 20:40:37 10° NNW 20:46:16 64° ENE 20:50:38 17° SE
Meteor 1-16 Rocket 4.3 20:43:30 10° N 20:49:29 88° E 20:54:41 14° S
USA 234 3.4 20:43:57 10° ENE 20:50:14 47° SE 20:56:28 10° SSW
Cosmos 2322 Rocket 3.8 20:45:47 10° NW 20:50:36 29° WSW 20:55:25 10° SSW
Meteor 2-20 Rocket 4.4 20:49:13 10° N 20:55:23 81° E 21:00:16 16° SSE
Cosmos 2297 Rocket 3.2 20:53:48 18° SE 20:56:40 26° ESE 21:01:17 10° NE
EXPRESS MD2 4.3 20:55:45 10° WNW 20:58:02 25° N 20:59:56 10° ENE
MOS 1 Rocket 3.7 20:58:40 15° S 21:03:12 78° WSW 21:08:23 10° NNW
Cosmos 1908 Rocket 3.5 21:00:01 10° N 21:04:20 70° E 21:07:02 22° SSE
Cosmos 2219 Rocket 2.8 21:01:47 10° NW 21:07:18 53° WSW 21:11:43 16° S
Cosmos 1782 Rocket 4.2 21:04:00 10° N 21:08:05 39° ENE 21:10:15 23° SE
ERS-1 Rocket 3.7 21:03:32 11° S 21:08:08 50° W 21:13:01 10° NNW
Cosmos 371 Rocket 3.8 21:06:32 21° SSE 21:09:08 38° ESE 21:13:36 10° NE
Terra 2.4 21:07:30 14° S 21:11:28 52° W 21:16:05 10° NNW
Cosmos 1570 Rocket 4.0 21:08:09 10° NNW 21:13:33 88° WSW 21:17:02 22° SSE
MetOp-A 4.2 21:10:24 22° SE 21:13:46 62° ENE 21:18:53 10° N
Cosmos 1300 Rocket 4.3 21:11:06 10° N 21:15:10 38° ENE 21:17:09 24° SE
Meteor 1-4 Rocket 4.4 21:17:26 10° SW 21:19:52 22° WNW 21:22:19 10° NNW
ARIANE 5 R/B 4.0 21:19:54 18° ESE 21:21:58 26° ENE 21:25:35 10° N
Spot 1 4.3 21:19:31 10° NNE 21:24:17 82° ESE 21:28:03 17° SSW
GP-B 3.4 21:21:11 10° NNE 21:25:29 50° E 21:27:24 29° SSE
Landsat 4 4.4 21:24:23 21° SSW 21:26:14 41° W 21:29:31 10° NNW
Cosmos 836 Rocket 4.5 21:22:00 10° NNW 21:27:14 77° ENE 21:30:07 27° SSE
Cosmos 2084 Rocket 3.4 21:25:43 15° SSW 21:29:07 59° SE 21:33:14 10° NE
NOSS 0 Rocket 4.0 21:25:22 10° NNW 21:31:39 81° ENE 21:35:24 26° SSE
CZ-4C R/B 1.7 21:29:18 10° SW 21:33:40 88° SE 21:39:11 10° NE
Cosmos 1953 3.2 21:30:14 10° NNW 21:33:51 41° W 21:36:01 21° SSW
COSMOS 2428 2.8 21:28:12 10° NNW 21:33:53 69° WSW 21:37:11 26° S
SJ 16-02 4.0 21:30:51 10° WSW 21:33:59 19° WNW 21:37:10 10° N
SPOT 3 Rocket 4.3 21:30:22 17° SSW 21:34:07 46° W 21:39:06 10° NNW
Cosmos 1455 3.0 21:32:11 10° NNW 21:35:30 40° W 21:37:15 23° SSW
Cosmos 2360 Rocket 4.5 21:32:31 10° WNW 21:35:49 16° W 21:39:05 10° SW
Cosmos 1386 Rocket 4.4 21:32:18 18° S 21:37:04 87° E 21:43:14 10° N
Cosmos 1745 Rocket 4.0 21:34:05 21° S 21:38:31 78° E 21:44:54 10° N
Cosmos 1777 Rocket 4.4 21:36:58 29° SSE 21:39:10 44° ESE 21:44:11 10° NNE
BREEZE-M DEB (TANK) 3.0 21:39:51 43° E 21:39:51 43° E 21:42:19 10° ENE
ATLAS 2AS CENTAUR R/B 4.4 21:35:48 10° WNW 21:40:30 21° WSW 21:45:09 10° SSW
Cosmos 304 Rocket 3.7 21:38:33 27° S 21:41:00 64° ESE 21:45:43 10° NNE
Nadezhda 1 Rocket 4.0 21:38:32 10° N 21:44:48 88° W 21:48:28 26° S
Cosmos 1703 Rocket 4.4 21:41:35 15° SSW 21:45:09 49° WNW 21:49:28 10° N
Cosmos 1242 Rocket 4.1 21:44:43 14° WSW 21:46:19 22° WNW 21:48:33 10° NNW
Cosmos 1503 Rocket 4.0 21:45:02 27° S 21:47:51 64° ESE 21:53:05 10° NNE
Cosmos 1825 4.3 21:49:46 13° E 21:49:46 13° E 21:51:01 10° ENE
SL-23 DEB 4.2 21:48:12 19° SW 21:50:54 57° SE 21:56:58 10° ENE
SeaSat 1 3.4 21:52:49 23° SSW 21:55:12 37° WSW 21:59:46 10° NW
Cosmos 2098 Rocket 4.4 21:50:21 10° N 21:56:41 51° ENE 21:59:29 29° SE
BREEZE-M R/B 4.3 21:57:09 25° ESE 21:57:09 25° ESE 22:02:29 10° ENE
Okean 2 Rocket 4.5 21:54:17 10° NNE 21:58:08 27° ENE 21:59:32 23° ESE
H-2A R/B 3.7 21:56:48 25° ESE 21:58:13 32° ENE 22:01:57 10° N
COSMOS 2455 3.3 21:53:34 10° SW 21:59:31 62° NW 22:05:32 10° NNE
Cosmos 1892 4.2 22:01:06 20° E 22:01:06 20° E 22:03:31 10° NE
Cosmos 1408 2.6 22:02:06 45° WSW 22:02:33 51° W 22:05:29 10° N
CZ-2C R/B 3.6 21:59:11 10° NNE 22:03:37 73° ESE 22:05:09 40° S
Cosmos 332 Rocket 4.1 22:03:50 38° SE 22:05:05 47° ESE 22:09:47 10° NNE
ALOS 2 4.1 22:04:51 21° E 22:06:26 26° ENE 22:10:05 10° N
Cosmos 1174 3.9 22:02:55 10° NNW 22:07:40 80° NE 22:08:42 49° SE
Cosmos 405 Rocket 3.0 22:05:39 10° N 22:09:21 50° ENE 22:09:55 45° ESE
SL-4 R/B 2.7 22:06:50 10° WNW 22:10:29 35° SW 22:10:36 35° SW
Cosmos 2181 Rocket 4.4 22:05:37 10° N 22:11:36 51° ENE 22:14:19 30° SE
Meteor 2-5 Rocket 3.7 22:11:12 33° S 22:13:58 77° E 22:19:46 10° NNE
BlueWalker 3 4.4 22:11:04 10° WNW 22:14:08 23° N 22:17:12 10° NE
CENTAUR R/B 2.5 22:11:56 34° S 22:14:13 55° ESE 22:20:47 10° NE
SL-16 R/B 3.3 22:09:52 10° NNW 22:15:05 35° NE 22:18:24 20° ESE
Cosmos 2237 Rocket 2.2 22:11:50 10° NNW 22:17:30 77° WSW 22:19:45 38° S
Spot 4 4.3 22:17:54 35° SE 22:19:33 51° ENE 22:24:14 10° N
Cosmos 783 Rocket 4.5 22:14:22 10° NNW 22:19:42 86° ENE 22:21:39 40° SSE
Cosmos 2227 Rocket 2.2 22:18:49 36° S 22:21:06 66° ESE 22:26:44 10° NNE
Cosmos 2221 Rocket 4.0 22:25:50 41° ESE 22:26:32 45° E 22:30:45 10° NNE
Cosmos 1980 4.0 22:26:15 10° NNW 22:31:47 56° WSW 22:33:48 37° SSW
USA 234 3.8 22:26:55 10° NE 22:33:21 61° NNW 22:39:45 10° WSW
H-2A R/B 4.0 22:31:03 10° NE 22:33:24 15° E 22:33:24 15° E
Cosmos 1354 Rocket 4.2 22:31:07 28° SW 22:33:57 71° WNW 22:39:15 10° NNE
Sich 1 Rocket 3.7 22:29:44 10° N 22:34:05 60° E 22:34:57 49° SE
Cosmos 1709 Rocket 4.5 22:33:28 23° SSW 22:37:25 57° WNW 22:43:40 10° N
Okean 1 Rocket 3.7 22:35:52 10° N 22:40:05 44° ENE 22:40:58 39° ESE
Cosmos 2297 Rocket 3.0 22:35:31 13° SW 22:40:23 49° WNW 22:45:53 10° NNE
Cosmos 1461 4.1 22:43:12 27° E 22:43:12 27° E 22:45:42 10° NE
Cosmos 990 Rocket 3.9 22:45:53 48° S 22:47:11 68° ESE 22:52:18 10° NNE
Cosmos 967 Rocket 4.5 22:48:59 37° S 22:51:41 69° ESE 22:58:07 10° NE
SAR-Lupe-3 4.4 22:52:43 87° ESE 22:52:45 88° ENE 22:56:22 10° NNW
Cosmos 2219 3.2 22:51:46 44° S 22:53:24 65° ESE 22:58:58 10° NNE
USA 281 3.3 22:50:46 37° S 22:53:30 68° WSW 23:00:05 10° NNW
Meteor 1-24 Rocket 4.4 22:52:46 26° SW 22:55:47 49° WNW 23:01:09 10° N
ARIANE 5 R/B 3.7 22:57:21 29° WSW 22:58:14 32° W 23:02:09 10° NNW
Cosmos 1025 Rocket 3.4 23:00:15 45° ESE 23:00:38 46° E 23:04:45 10° NNE
Cosmos 2263 Rocket 2.3 23:01:07 45° SSE 23:02:23 55° ESE 23:07:48 10° NNE
Cosmos 2184 Rocket 4.0 22:59:57 40° S 23:02:24 79° E 23:08:49 10° N
Cosmos 1455 Rocket 3.9 23:06:08 10° N 23:10:20 40° ENE 23:11:17 35° ESE
Cosmos 372 Rocket 4.5 23:10:26 40° SE 23:11:18 43° ESE 23:16:13 10° NNE
Cosmos 1378 Rocket 4.3 23:10:39 36° WSW 23:11:48 44° WNW 23:16:03 10° N
Cosmos 1674 Rocket 4.1 23:14:09 41° WSW 23:15:07 49° WNW 23:19:20 10° N
Cosmos 292 Rocket 3.7 23:17:32 58° S 23:18:26 79° ESE 23:23:16 10° NNE
Cosmos 2154 Rocket 3.9 23:18:32 42° S 23:20:52 87° E 23:27:13 10° N
NOSS 3-2 (A) 3.1 23:18:38 36° SW 23:20:52 82° NW 23:27:00 10° NE
CZ-4C R/B 4.5 23:19:08 10° WNW 23:23:00 22° NNW 23:27:34 10° NNE
Cosmos 1825 3.0 23:23:13 35° WNW 23:23:15 35° WNW 23:26:26 10° N
PSLV R/B 3.3 23:26:07 10° NNE 23:30:19 82° WNW 23:30:49 68° SSW
NOSS 3-2 (C) 3.2 23:30:22 48° SSE 23:31:23 56° ESE 23:37:16 10° NE
H-2A R/B 4.0 23:32:47 24° WSW 23:33:08 25° W 23:36:37 10° NW
Cosmos 1538 Rocket 4.2 23:28:40 10° NNW 23:33:47 56° WSW 23:34:51 47° SSW
Cosmos 1818 3.5 23:29:02 10° NW 23:34:33 87° NE 23:36:28 42° SE
Cosmos 1892 4.2 23:34:58 23° W 23:35:20 24° WNW 23:38:14 10° NNW
Meteor 1-21 Rocket 4.2 23:34:06 47° S 23:35:53 87° E 23:41:33 10° NNE
Okean 2 Rocket 4.3 23:32:12 10° NNW 23:36:06 30° W 23:36:50 28° WSW
Cosmos 1328 4.5 23:41:31 40° W 23:41:53 41° WNW 23:45:35 10° N
ALOS 2 3.6 23:42:15 32° WSW 23:42:38 32° W 23:46:36 10° NNW
In-Cosmos 22 Rocket 4.4 23:41:13 44° SSE 23:43:02 69° E 23:48:51 10° NNE
Cosmos 1869 4.1 23:45:20 10° N 23:48:49 38° ENE 23:49:12 37° E
Aureole 1 Rocket 3.5 23:48:39 42° WSW 23:49:32 50° WNW 23:54:18 10° NNE
Cosmos 1937 Rocket 3.4 23:48:31 51° S 23:49:51 81° ESE 23:55:06 10° NNE
BlueWalker 3 4.2 23:50:01 10° NW 23:53:10 25° NNE 23:56:19 10° ENE
